Regional Weather Roundup
Issued by NWS

Home | Current Version | Previous Version | Graphics & Text | Print | Product List | Glossary On
Versions: 1 2 3 4 5 6 7 8 9 10 11 12 13 14 15 16 17 18 19 20 21 22 23 24 25 26 27 28 29 30 31 32 33 34 35 36 37 38 39 40 41 42 43 44 45 46 47 48 49 50
000
ASUS43 KOAX 161810
RWRNE

WEATHER ROUNDUP FOR NEBRASKA
NATIONAL WEATHER SERVICE OMAHA NE
100 PM CDT TUE SEP 16 2014

NOTES: SATELLITE DATA IS BEING USED TO AUGMENT CLOUD COVER ABOVE
       12000 FEET.
       "FAIR" INDICATES FEW OR NO CLOUDS BELOW 12,000 FEET WITH NO
       SIGNIFICANT WEATHER AND/OR OBSTRUCTIONS TO VISIBILITY.

  * THESE STATIONS DO NOT REPORT WEATHER SUCH AS RAIN...SNOW OR FOG.

NEZ001>004-019>022-054>056-161900-
NEBRASKA PANHANDLE

CITY           SKY/WX    TMP DP  RH WIND       PRES   REMARKS
SCOTTSBLUFF    SUNNY     74  52  46 W10       30.07F
6HR MIN TEMP:  46; 6HR MAX TEMP:  75;

ALLIANCE       SUNNY     75  51  43 N12       30.05F
6HR MIN TEMP:  46; 6HR MAX TEMP:  75;

CHADRON        SUNNY     75  48  38 VRB3      30.03F
6HR MIN TEMP:  45; 6HR MAX TEMP:  75;

KIMBALL        SUNNY     79  40  25 N12       30.11S
SIDNEY         SUNNY     81  45  28 N15       30.08F
6HR MIN TEMP:  50; 6HR MAX TEMP:  82;

$$

NEZ057>060-069>072-079>082-161900-
SOUTHWEST NEBRASKA

CITY           SKY/WX    TMP DP  RH WIND       PRES   REMARKS
NORTH PLATTE   MOSUNNY   70  56  61 SW14      30.06F
6HR MIN TEMP:  50; 6HR MAX TEMP:  70;

IMPERIAL       SUNNY     74  55  51 S14       30.05F
6HR MIN TEMP:  49; 6HR MAX TEMP:  74;

LEXINGTON      PTSUNNY   61  55  80 S15       30.08R
MCCOOK         PTSUNNY   69  55  60 S17G24    30.08F
6HR MIN TEMP:  50; 6HR MAX TEMP:  69;

OGALLALA       SUNNY     75  58  55 SW5       30.03F
$$

NEZ005>010-023>029-035>040-094-161900-
NORTH CENTRAL NEBRASKA

CITY           SKY/WX    TMP DP  RH WIND       PRES   REMARKS
VALENTINE      SUNNY     72  54  53 SW10      30.00F
6HR MIN TEMP:  49; 6HR MAX TEMP:  73;

AINSWORTH      SUNNY     69  53  56 S15       30.02F
BROKEN BOW     CLOUDY    65  53  65 S14G23    30.09S
6HR MIN TEMP:  46; 6HR MAX TEMP:  65;

O`NEILL        SUNNY     67  55  63 S14G24    30.07F
ORD            PTSUNNY   66  53  63 S16G22    30.09S
6HR MIN TEMP:  44; 6HR MAX TEMP:  66;

THEDFORD       SUNNY     73  56  55 S16       30.03F
$$

NEZ041-046>049-061>064-073>077-083>087-161900-
SOUTH CENTRAL NEBRASKA

CITY           SKY/WX    TMP DP  RH WIND       PRES   REMARKS
GRAND ISLAND   SUNNY     67  52  58 S14G20    30.12F
6HR MIN TEMP:  46; 6HR MAX TEMP:  67;

AURORA         SUNNY     65  47  51 S13       30.13F
HASTINGS       SUNNY     68  51  54 S13G20    30.12F
6HR MIN TEMP:  44; 6HR MAX TEMP:  68;

HEBRON         SUNNY     67  46  46 SE6       30.15F
HOLDREGE       CLOUDY    60  51  73 S14       30.12F
KEARNEY *      CLOUDY    66  54  63 S15G21    30.11F
YORK           SUNNY     63  50  63 S10       30.15F
$$

NEZ011>018-030>034-042>045-161900-
NORTHEAST NEBRASKA

CITY           SKY/WX    TMP DP  RH WIND       PRES   REMARKS
NORFOLK        SUNNY     65  48  54 S16       30.12F
6HR MIN TEMP:  44; 6HR MAX TEMP:  65;

ALBION         MOSUNNY   64  48  57 S15       30.11F
BLAIR          SUNNY     64  46  52 S8        30.16F
COLUMBUS *     SUNNY     64  46  52 SW13      30.15F
FREMONT        SUNNY     65  48  54 SE8       30.16F
TEKAMAH        SUNNY     65  48  54 S9G17     30.15F
6HR MIN TEMP:  40; 6HR MAX TEMP:  65;

WAYNE          SUNNY     65  47  52 S13G18    30.13F
$$

NEZ050>053-065>068-078-088>093-161900-
SOUTHEAST NEBRASKA

CITY           SKY/WX    TMP DP  RH WIND       PRES   REMARKS
LINCOLN        SUNNY     66  46  48 S8        30.16F
6HR MIN TEMP:  39; 6HR MAX TEMP:  66;

OMAHA EPPLEY   SUNNY     63  46  54 S9        30.18F
6HR MIN TEMP:  45; 6HR MAX TEMP:  63;

BEATRICE       SUNNY     64  47  53 SE8       30.16F
FALLS CITY     SUNNY     66  49  54 S7        30.18F
6HR MIN TEMP:  40; 6HR MAX TEMP:  66;

NEBRASKA CITY  SUNNY     63  42  45 S8        30.18F
PLATTSMOUTH    SUNNY     63  46  53 SE6       30.17F
$$

NEZ044-045-051>053-067-161900-
OMAHA AREA

CITY           SKY/WX    TMP DP  RH WIND       PRES   REMARKS
OMAHA EPPLEY   SUNNY     63  46  54 S9        30.18F
6HR MIN TEMP:  45; 6HR MAX TEMP:  63;

BLAIR          SUNNY     64  46  52 S8        30.16F
FREMONT        SUNNY     65  48  54 SE8       30.16F
MILLARD        SUNNY     64  49  59 S6        30.17F
OFFUTT AFB     SUNNY     64  53  69 VRB6      30.17F
PLATTSMOUTH    SUNNY     63  46  53 SE6       30.17F
WAHOO          FAIR      66  46  47 S9        30.15F
$$



USA.gov is the U.S. government's official web portal to all federal, state and local government web resources and services.